Date String (YYYY-MM-DD hh:mm:ss) UTC,Instrument flags,absolute air pressure of the measurement (hPa),sample flow rate (lpm),inlet stack bypass flow (lpm),air temperature of the measurement (°C),ambient temperature measured by the external sensor (°C),aerosol sample conditioner tube jacket temperature (°C),OPC LED temperature (°C),internal box temperature (°C),relative humidity of the measurement (%),span deviation,mass concentration of particles derived from Lorenz-Mie calculation of OPC scattering (μg/m³),mass concentration of particles derived from Lorenz-Mie calculation of OPC scattering (μg/m³),mass concentration of particles derived from Lorenz-Mie calculation of OPC scattering (μg/m³)
DateTimeUTC,F1_M11,P_M11,Q1_M11,Q2_M11,T1_M11,T2_M11,T3_M11,T4_M11,T5_M11,U1_M11,ZSPAN_M11,X2_M11,X0_M11,X1_M11
2023-06-26 01:00:00,SystemResetWarning,0832.3,4.99,000.00,029.3,026.8,000.0,037.8,030.9,32.6,0000.0,0005.07,0014.91,0003.98
2023-06-26 01:01:00,SystemResetWarning,0831.9,5.00,000.00,029.3,027.2,000.0,037.8,031.0,32.6,0000.0,0005.06,0015.24,0003.97
2023-06-26 01:02:00,SystemResetWarning,0831.7,5.01,000.00,029.4,027.6,000.0,037.8,031.1,31.9,0000.0,0005.07,0015.41,0003.97
2023-06-26 01:03:00,SystemResetWarning,0831.9,5.01,000.00,029.4,027.8,000.0,037.8,031.1,31.8,0000.0,0005.05,0014.09,0003.96
2023-06-26 01:04:00,SystemResetWarning,0831.7,5.00,000.00,029.5,028.1,000.0,037.9,031.2,32.1,0000.0,0005.12,0013.24,0003.95
2023-06-26 01:05:00,SystemResetWarning,0831.9,4.98,000.00,029.5,027.3,000.0,037.8,031.3,31.6,0000.0,0005.11,0012.90,0003.94
2023-06-26 01:06:00,SystemResetWarning,0832.3,5.01,000.00,029.5,025.2,000.0,037.8,031.2,31.6,0000.0,0005.12,0012.82,0003.92
2023-06-26 01:07:00,SystemResetWarning,0832.1,5.02,000.00,029.5,024.5,000.0,037.7,031.1,31.6,0000.0,0005.07,0013.34,0003.91
2023-06-26 01:08:00,SystemResetWarning,0832.2,4.99,000.00,029.4,024.6,000.0,037.7,030.7,31.7,0000.0,0005.09,0013.60,0003.91
2023-06-26 01:09:00,SystemResetWarning,0832.2,5.00,000.00,029.3,025.1,000.0,037.7,030.6,31.8,0000.0,0005.03,0013.70,0003.90
2023-06-26 01:10:00,SystemResetWarning,0832.3,5.00,000.00,029.3,025.6,000.0,037.7,030.7,32.1,0000.0,0005.00,0013.47,0003.90
2023-06-26 01:11:00,SystemResetWarning,0831.9,5.00,000.00,029.3,026.2,000.0,037.7,030.8,32.3,0000.0,0004.98,0013.70,0003.90
2023-06-26 01:12:00,SystemResetWarning,0831.8,5.00,000.00,029.3,026.7,000.0,037.8,030.9,32.3,0000.0,0004.97,0013.69,0003.89
2023-06-26 01:13:00,SystemResetWarning,0831.8,5.00,000.00,029.3,027.1,000.0,037.8,030.9,32.1,0000.0,0004.96,0013.49,0003.89
2023-06-26 01:14:00,SystemResetWarning,0831.8,4.98,000.00,029.3,027.4,000.0,037.8,031.0,32.0,0000.0,0005.00,0015.03,0003.90
2023-06-26 01:15:00,SystemResetWarning,0831.8,5.01,000.00,029.4,027.7,000.0,037.8,031.1,31.8,0000.0,0004.94,0015.49,0003.91
2023-06-26 01:16:00,SystemResetWarning,0831.9,4.99,000.00,029.4,027.9,000.0,037.8,031.2,32.0,0000.0,0004.94,0015.09,0003.92
2023-06-26 01:17:00,SystemResetWarning,0831.8,4.99,000.00,029.5,026.6,000.0,037.8,031.1,32.2,0000.0,0004.94,0014.81,0003.93
2023-06-26 01:18:00,SystemResetWarning,0831.8,5.01,000.00,029.4,024.8,000.0,037.7,031.0,32.3,0000.0,0004.96,0015.38,0003.94
2023-06-26 01:19:00,SystemResetWarning,0832.0,5.00,000.00,029.4,024.3,000.0,037.7,030.9,32.2,0000.0,0004.97,0014.57,0003.95
2023-06-26 01:20:00,SystemResetWarning,0831.9,5.01,000.00,029.3,024.6,000.0,037.7,030.6,32.3,0000.0,0005.04,0014.93,0003.95
2023-06-26 01:21:00,SystemResetWarning,0831.8,4.99,000.00,029.2,025.1,000.0,037.7,030.5,32.9,0000.0,0005.05,0014.94,0003.95
2023-06-26 01:22:00,SystemResetWarning,0831.9,5.00,000.00,029.2,025.7,000.0,037.7,030.6,32.6,0000.0,0005.04,0015.16,0003.95
2023-06-26 01:23:00,SystemResetWarning,0831.8,5.00,000.00,029.2,026.2,000.0,037.7,030.7,32.6,0000.0,0005.06,0015.04,0003.96
2023-06-26 01:24:00,SystemResetWarning,0831.8,5.00,000.00,029.2,026.7,000.0,037.7,030.8,32.7,0000.0,0005.11,0015.55,0003.96
2023-06-26 01:25:00,SystemResetWarning,0831.8,5.01,000.00,029.2,027.0,000.0,037.7,030.9,32.4,0000.0,0005.06,0014.65,0003.94
2023-06-26 01:26:00,SystemResetWarning,0831.9,4.98,000.00,029.3,027.4,000.0,037.8,030.9,32.4,0000.0,0005.08,0014.19,0003.93
2023-06-26 01:27:00,SystemResetWarning,0831.9,4.99,000.00,029.3,027.6,000.0,037.8,031.0,32.4,0000.0,0005.07,0015.00,0003.92
2023-06-26 01:28:00,SystemResetWarning,0832.0,5.01,000.00,029.4,027.9,000.0,037.8,031.1,32.1,0000.0,0005.08,0015.91,0003.92
2023-06-26 01:29:00,SystemResetWarning,0832.0,5.01,000.00,029.4,028.1,000.0,037.8,031.1,32.1,0000.0,0005.09,0015.77,0003.91
2023-06-26 01:30:00,SystemResetWarning,0832.0,4.98,000.00,029.5,027.4,000.0,037.8,031.2,31.6,0000.0,0005.02,0015.41,0003.90
2023-06-26 01:31:00,SystemResetWarning,0832.0,5.00,000.00,029.4,025.3,000.0,037.8,031.1,31.9,0000.0,0004.94,0015.76,0003.89
2023-06-26 01:32:00,SystemResetWarning,0832.0,5.02,000.00,029.4,024.4,000.0,037.7,031.0,32.6,0000.0,0004.90,0015.67,0003.90
2023-06-26 01:33:00,SystemResetWarning,0832.0,4.99,000.00,029.3,024.5,000.0,037.7,030.7,32.5,0000.0,0004.93,0015.75,0003.90
2023-06-26 01:34:00,SystemResetWarning,0832.0,5.00,000.00,029.2,024.9,000.0,037.7,030.5,32.8,0000.0,0004.89,0015.08,0003.89
2023-06-26 01:35:00,SystemResetWarning,0832.0,5.01,000.00,029.2,025.5,000.0,037.7,030.5,32.5,0000.0,0004.84,0015.16,0003.88
2023-06-26 01:36:00,SystemResetWarning,0832.0,5.00,000.00,029.2,026.0,000.0,037.7,030.6,32.7,0000.0,0004.86,0016.30,0003.89
2023-06-26 01:37:00,SystemResetWarning,0832.0,5.00,000.00,029.2,026.5,000.0,037.7,030.7,32.8,0000.0,0004.89,0015.82,0003.90
2023-06-26 01:38:00,SystemResetWarning,0832.0,5.01,000.00,029.2,026.9,000.0,037.7,030.8,33.0,0000.0,0004.92,0015.20,0003.90
2023-06-26 01:39:00,SystemResetWarning,0832.0,4.99,000.00,029.2,027.2,000.0,037.7,030.9,33.2,0000.0,0004.93,0015.25,0003.90
2023-06-26 01:40:00,SystemResetWarning,0832.0,5.00,000.00,029.3,027.5,000.0,037.8,030.9,33.2,0000.0,0004.89,0015.31,0003.90
2023-06-26 01:41:00,SystemResetWarning,0832.1,5.00,000.00,029.3,027.8,000.0,037.8,031.0,32.4,0000.0,0004.92,0015.25,0003.91
2023-06-26 01:42:00,SystemResetWarning,0832.1,5.00,000.00,029.4,028.0,000.0,037.8,031.1,32.6,0000.0,0004.99,0014.44,0003.92
2023-06-26 01:43:00,SystemResetWarning,0832.1,5.00,000.00,029.4,028.2,000.0,037.8,031.2,32.9,0000.0,0005.08,0014.78,0003.92
2023-06-26 01:44:00,SystemResetWarning,0832.0,4.98,000.00,029.5,027.2,000.0,037.8,031.2,32.7,0000.0,0005.09,0015.08,0003.93
2023-06-26 01:45:00,SystemResetWarning,0832.0,5.01,000.00,029.4,025.2,000.0,037.7,031.0,32.7,0000.0,0005.10,0015.43,0003.91
2023-06-26 01:46:00,SystemResetWarning,0832.0,5.01,000.00,029.4,024.4,000.0,037.7,031.0,32.9,0000.0,0005.14,0016.34,0003.92
2023-06-26 01:47:00,SystemResetWarning,0832.0,5.00,000.00,029.3,024.5,000.0,037.7,030.6,33.2,0000.0,0005.15,0015.26,0003.91
2023-06-26 01:48:00,SystemResetWarning,0832.1,4.99,000.00,029.2,025.0,000.0,037.7,030.5,33.5,0000.0,0005.11,0015.30,0003.90
2023-06-26 01:49:00,SystemResetWarning,0832.0,5.00,000.00,029.2,025.5,000.0,037.7,030.5,33.6,0000.0,0005.08,0015.72,0003.89
2023-06-26 01:50:00,SystemResetWarning,0832.0,5.01,000.00,029.2,026.1,000.0,037.7,030.6,33.4,0000.0,0005.07,0015.34,0003.87
2023-06-26 01:51:00,SystemResetWarning,0832.1,5.00,000.00,029.2,026.5,000.0,037.7,030.7,33.7,0000.0,0005.11,0015.35,0003.85
2023-06-26 01:52:00,SystemResetWarning,0832.0,4.98,000.00,029.2,026.9,000.0,037.7,030.8,33.8,0000.0,0005.15,0016.30,0003.85
2023-06-26 01:53:00,SystemResetWarning,0832.0,5.00,000.00,029.3,027.2,000.0,037.7,030.9,34.0,0000.0,0005.13,0017.08,0003.84
2023-06-26 01:54:00,SystemResetWarning,0832.0,5.01,000.00,029.3,027.5,000.0,037.8,030.9,33.9,0000.0,0005.10,0017.55,0003.83
2023-06-26 01:55:00,SystemResetWarning,0832.0,5.01,000.00,029.3,027.8,000.0,037.8,031.0,33.7,0000.0,0005.06,0016.76,0003.83
2023-06-26 01:56:00,SystemResetWarning,0832.1,4.99,000.00,029.4,028.0,000.0,037.8,031.1,33.4,0000.0,0005.03,0017.15,0003.83
2023-06-26 01:57:00,SystemResetWarning,0832.0,4.99,000.00,029.4,027.6,000.0,037.8,031.2,33.5,0000.0,0005.00,0016.46,0003.83
2023-06-26 01:58:00,SystemResetWarning,0832.0,5.00,000.00,029.4,025.8,000.0,037.8,031.2,33.4,0000.0,0005.01,0016.24,0003.84
2023-06-26 01:59:00,SystemResetWarning,0832.0,5.01,000.00,029.4,025.2,000.0,037.7,031.1,33.2,0000.0,0004.98,0016.20,0003.83
